Franklin, NC

4:54 PM EST on February 20, 2018 (GMT -0500)
Franklin

Weather History for K1A5 - December, 2011

Change the Weather History Date:

Monday, December 5, 2011

  Actual Average (KTOC) Record (KTOC)
Temperature  
Mean Temperature 55 °F -  
Max Temperature 62 °F 55 °F 70 °F (2013)
Min Temperature 48 °F 34 °F 32 °F (2015)
Degree Days  
Heating Degree Days 10    
Growing Degree Days 5 (Base 50)    
Moisture  
Dew Point 47 °F    
Average Humidity 75    
Maximum Humidity 94    
Minimum Humidity 59    
Precipitation  
Precipitation 0.02 in - - ()
Sea Level Pressure  
Sea Level Pressure 30.20 in    
Wind  
Wind Speed 2 mph (South)    
Max Wind Speed 9 mph    
Max Gust Speed 18 mph    
Visibility 10 miles    
Events Rain    
Averages and records for this station are not official NWS values.
T = Trace of Precipitation, MM = Missing Value Source: NWS Daily Summary

Daily Weather History Graph

Daily Weather History Graph

Search for Another Location

Airport or City:

Trip Planner

Search our weather history database for the weather conditions in past years. The results will help you decide how hot, cold, wet, or windy it might be!

Date:

Astronomy

Dec. 05, 2011 Rise Set
Actual Time 7:27 AM EST 5:21 PM EST
Civil Twilight 6:59 AM EST 5:49 PM EST
Nautical Twilight 6:27 AM EST 6:20 PM EST
Astronomical Twilight 5:56 AM EST 6:51 PM EST
Moon 2:12 PM EST (12/5) 2:55 AM EST (12/5)
Length of Visible Light 10h 50m
Length of Day
9h 54m
Waxing Gibbous, 79% of the Moon is Illuminated
Dec 5
Waxing Gibbous
Dec 10
Full
Dec 17
Last Quarter
Dec 24
New
Jan 1
First Quarter

Hourly Weather History & Observations

Time (EST) Temp. Dew Point Humidity Pressure Visibility Wind Dir Wind Speed Gust Speed Precip Events Conditions
12:15 AM 48.2 °F 42.8 °F 82% 30.31 in 10.0 mi Calm Calm - N/A   Overcast
12:35 AM 48.2 °F 42.8 °F 82% 30.30 in 10.0 mi Calm Calm - N/A   Overcast
12:55 AM 48.2 °F 42.8 °F 82% 30.29 in 10.0 mi Calm Calm - N/A   Overcast
1:15 AM 48.2 °F 42.8 °F 82% 30.29 in 10.0 mi Calm Calm - N/A   Overcast
1:35 AM 50.0 °F 44.6 °F 82% 30.29 in 10.0 mi Calm Calm - N/A   Overcast
2:15 AM 53.6 °F 42.8 °F 67% 30.27 in 10.0 mi Calm Calm - N/A   Overcast
2:35 AM 51.8 °F 42.8 °F 71% 30.27 in 10.0 mi North 4.6 mph - N/A   Overcast
2:55 AM 53.6 °F 42.8 °F 67% 30.26 in 10.0 mi Calm Calm - N/A   Overcast
3:15 AM 51.8 °F 42.8 °F 71% 30.26 in 10.0 mi Calm Calm - N/A   Overcast
3:35 AM 51.8 °F 42.8 °F 71% 30.26 in 10.0 mi Calm Calm - N/A   Overcast
3:55 AM 51.8 °F 42.8 °F 71% 30.26 in 10.0 mi Calm Calm - N/A   Overcast
4:15 AM 51.8 °F 42.8 °F 71% 30.25 in 10.0 mi Calm Calm - N/A   Overcast
4:35 AM 51.8 °F 44.6 °F 76% 30.25 in 10.0 mi Calm Calm - N/A   Overcast
5:15 AM 51.8 °F 44.6 °F 76% 30.24 in 10.0 mi Calm Calm - N/A   Overcast
5:35 AM 51.8 °F 44.6 °F 76% 30.25 in 10.0 mi North 3.5 mph - N/A   Overcast
6:15 AM 51.8 °F 44.6 °F 76% 30.25 in 10.0 mi Calm Calm - N/A   Overcast
6:35 AM 51.8 °F 44.6 °F 76% 30.25 in 10.0 mi Calm Calm - N/A   Overcast
6:55 AM 51.8 °F 44.6 °F 76% 30.25 in 10.0 mi North 3.5 mph - N/A   Overcast
7:15 AM 51.8 °F 44.6 °F 76% 30.25 in 10.0 mi Calm Calm - N/A   Overcast
7:35 AM 51.8 °F 44.6 °F 76% 30.26 in 10.0 mi Calm Calm - N/A   Overcast
7:55 AM 53.6 °F 44.6 °F 72% 30.26 in 10.0 mi North 5.8 mph - N/A   Overcast
8:15 AM 53.6 °F 44.6 °F 72% 30.26 in 10.0 mi North 5.8 mph - N/A   Overcast
8:35 AM 53.6 °F 46.4 °F 77% 30.25 in 10.0 mi North 3.5 mph - N/A   Overcast
8:55 AM 53.6 °F 46.4 °F 77% 30.25 in 10.0 mi Calm Calm - N/A   Overcast
9:15 AM 53.6 °F 46.4 °F 77% 30.25 in 10.0 mi Calm Calm - N/A   Mostly Cloudy
9:35 AM 55.4 °F 46.4 °F 72% 30.25 in 10.0 mi Calm Calm - N/A   Overcast
9:55 AM 55.4 °F 46.4 °F 72% 30.25 in 10.0 mi North 3.5 mph - N/A   Overcast
10:15 AM 57.2 °F 46.4 °F 67% 30.25 in 10.0 mi North 3.5 mph - N/A   Overcast
10:35 AM 57.2 °F 46.4 °F 67% 30.24 in 10.0 mi Calm Calm - N/A   Overcast
10:55 AM 59.0 °F 48.2 °F 67% 30.24 in 10.0 mi Calm Calm - N/A   Overcast
11:15 AM 59.0 °F 48.2 °F 67% 30.23 in 10.0 mi North 4.6 mph - N/A   Overcast
11:35 AM 60.8 °F 48.2 °F 63% 30.22 in 10.0 mi North 3.5 mph - N/A   Overcast
12:15 PM 60.8 °F 48.2 °F 63% 30.18 in 10.0 mi North 4.6 mph - N/A   Mostly Cloudy
12:35 PM 62.6 °F 48.2 °F 59% 30.17 in 10.0 mi North 8.1 mph - N/A   Scattered Clouds
12:55 PM 62.6 °F 50.0 °F 63% 30.16 in 10.0 mi North 9.2 mph - N/A   Mostly Cloudy
1:15 PM 60.8 °F 50.0 °F 68% 30.16 in 10.0 mi North 9.2 mph 18.4 mph N/A   Overcast
1:35 PM 60.8 °F 50.0 °F 68% 30.15 in 10.0 mi North 8.1 mph - N/A   Overcast
1:55 PM 60.8 °F 50.0 °F 68% 30.15 in 10.0 mi North 3.5 mph - N/A   Overcast
2:15 PM 60.8 °F 50.0 °F 68% 30.14 in 10.0 mi North 3.5 mph - N/A   Overcast
2:35 PM 59.0 °F 50.0 °F 72% 30.13 in 10.0 mi North 5.8 mph - N/A   Overcast
2:55 PM 59.0 °F 50.0 °F 72% 30.13 in 10.0 mi North 4.6 mph - N/A   Overcast
3:15 PM 59.0 °F 50.0 °F 72% 30.13 in 10.0 mi North 5.8 mph - N/A   Overcast
3:35 PM 59.0 °F 50.0 °F 72% 30.12 in 10.0 mi North 6.9 mph - N/A   Overcast
3:55 PM 59.0 °F 50.0 °F 72% 30.11 in 10.0 mi North 5.8 mph - N/A   Overcast
4:15 PM 59.0 °F 50.0 °F 72% 30.12 in 10.0 mi North 3.5 mph - N/A   Mostly Cloudy
4:35 PM 59.0 °F 50.0 °F 72% 30.14 in 10.0 mi North 3.5 mph - N/A   Mostly Cloudy
4:55 PM 59.0 °F 50.0 °F 72% 30.13 in 10.0 mi North 6.9 mph - N/A   Mostly Cloudy
5:15 PM 57.2 °F 50.0 °F 77% 30.11 in 10.0 mi North 4.6 mph - N/A   Scattered Clouds
5:35 PM 55.4 °F 50.0 °F 82% 30.13 in 10.0 mi Calm Calm - N/A   Mostly Cloudy
5:55 PM 57.2 °F 50.0 °F 77% 30.13 in 10.0 mi Calm Calm - N/A   Overcast
6:15 PM 57.2 °F 50.0 °F 77% 30.13 in 10.0 mi Calm Calm - N/A   Overcast
6:55 PM 57.2 °F 50.0 °F 77% 30.14 in 10.0 mi Calm Calm - N/A   Light Drizzle
7:15 PM 55.4 °F 50.0 °F 82% 30.15 in 10.0 mi Calm Calm - N/A   Overcast
7:35 PM 57.2 °F 50.0 °F 77% 30.16 in 10.0 mi Calm Calm - N/A   Drizzle
7:55 PM 55.4 °F 51.8 °F 88% 30.16 in 7.0 mi Calm Calm - N/A   Drizzle
8:15 PM 55.4 °F 51.8 °F 88% 30.16 in 7.0 mi North 3.5 mph - N/A   Heavy Drizzle
8:35 PM 53.6 °F 51.8 °F 94% 30.15 in 5.0 mi North 3.5 mph - 0.01 in   Drizzle
8:55 PM 53.6 °F 51.8 °F 94% 30.15 in 7.0 mi North 3.5 mph - 0.02 in   Light Drizzle
9:15 PM 55.4 °F 51.8 °F 88% 30.15 in 10.0 mi Calm Calm - N/A   Overcast
9:35 PM 55.4 °F 51.8 °F 88% 30.15 in 10.0 mi North 5.8 mph - N/A Rain Rain
9:55 PM 57.2 °F 51.8 °F 82% 30.15 in 10.0 mi North 5.8 mph - N/A   Light Drizzle
10:15 PM 57.2 °F 51.8 °F 82% 30.15 in 7.0 mi North 8.1 mph - N/A   Heavy Drizzle
10:35 PM 57.2 °F 51.8 °F 82% 30.15 in 7.0 mi North 6.9 mph - N/A Rain Light Rain
10:55 PM 57.2 °F 51.8 °F 82% 30.14 in 7.0 mi North 8.1 mph - N/A   Drizzle
11:15 PM 57.2 °F 51.8 °F 82% 30.14 in 10.0 mi North 5.8 mph - N/A   Overcast
11:35 PM 59.0 °F 51.8 °F 77% 30.14 in 10.0 mi North 3.5 mph - N/A   Drizzle
11:55 PM 57.2 °F 51.8 °F 82% 30.13 in 10.0 mi North 5.8 mph - 0.01 in Rain Light Rain